Weather in Shirkovo

Russia / Kursk Oblast     51°46′30″N   35°13′06″E
temp.,
°C
wind,
m/s
gust,
m/s
humid.,
%
clouds,
%
prec.,
mm/h
press.,
hPa
HPBL,
m
23 october, sat
sat2300:00+7sw386946 0.0 1011150
03:00+8wsw513531 0.0 1011356
06:00+5sw312665 0.0 1011238
09:00+7sw5116344 0.0 1011480
12:00+11w7124418 0.0 10121429
15:00+10w81250100 0.1 10131878
18:00+7w611625 0.0 1015540
21:00+5w511705 0.0 1017450
24 october, sun
sun2400:00+3w4107642 0.0 1018307
03:00+3wsw498081 0.0 1018209
06:00+6wsw51058100 0.0 1018499
09:00+6w51070100 0.0 1019686
12:00+7wnw6864100 0.1 10201224
15:00+6nw6958100 0.1 10211378
18:00+5nnw6106887 0.1 10231121
21:00+2nnw611695 0.1 1026599
25 october, mon
mon2500:000nw410745 0.0 1027309
03:00−1nnw39825 0.0 1029219
06:00−2nnw36925 0.0 1031120
09:000nnw34825 0.0 1032194
12:00+4nnw33565 0.0 1033781
15:00+5nw23475 0.0 1032969
18:00+2wnw22595 0.0 103310
21:00+1wsw22665 0.0 103314
26 october, tue
tue2600:000sw22730 0.0 103325
03:00−1sw23785 0.0 103330
06:00−2sw338115 0.0 103246
09:00+1ssw377024 0.0 1032204
12:00+6sw57455 0.0 1031555
15:00+8sw574035 0.0 1029774
18:00+4ssw37545 0.0 1028108
21:00+3ssw410585 0.0 1028191
27 october, wed
wed2700:00+2ssw410595 0.0 1028198
03:00+1ssw411585 0.0 1027214
06:00+1ssw411595 0.0 1026222
09:00+3ssw51352100 0.0 1025358
12:00+7sw71144100 0.0 1024612
15:00+8sw61150100 0.0 1022736
18:00+6wsw41066100 0.0 1022314
21:00+5w41086100 0.3 1021430